Location: Batang Balui
(2.7000°N, 113.7833°E)
Time: 00:17:58
(UTC+00:00)

BLOCK DM-SL R/B - Pass Details

Date: 03 December 2021
Orbit: 691 x 35805 km, 0.1° (Epoch: 27 January)

Event Time Altitude Azimuth Distance (km) Brightness Sun altitude
Rises 10:46:17 0° 266° (W) 4,061 8.4 -8.3°
Reaches altitude 10° 10:49:25 10° 263° (W) 2,462 7.1 -9.0°
Maximum altitude 10:53:47 65° 180° (S) 754 3.1 -10.1°
Drops below altitude 10° 10:58:27 10° 97° (E) 2,641 5.2 -11.1°
Enters shadow 10:58:35 10° 97° (E) 2,703 5.3 -11.2°
